ONEWEB-0068 (45446 NORAD) Tracking and Keplerian Element Data

This shows tracking and keplerian element data for the satellite.

Feedback or suggestion? Click here.




ElementValue
Catalog45446
NameONEWEB-0068
Epoch Orbit1559
Epoch Day185.58334491
Epoch Year2020
RAAN104.9
Inclination87.5778
Eccentricity0.0025656
Argument of Perigee281.1205
Mean Anonmoly67.4612
Mean Motion14.90112891
Decay Rate0.00035835
L11 45446U 20020Y 20185.58334491 .00035835 00000-0 36677-2 0 9995
L22 45446 87.5778 104.9000 0025656 281.1205 67.4612 14.90112891 15596

Live tracking and technical data element details for ONEWEB-0068 (NORAD 45446). ONEWEB-0068 can be tracked NOW for your location showing map with azimuth and elevation plus other details from your city location.

Track the satellite on the map from your city or location and see movement details for azimuth, elevation, latitude, longitude, range, height, and movement on the map or in text.







IsCatalogInMostPopularTable: catalog: 45446, numindb: 25
Update: records affected: 1



GetName: 45446 ONEWEB-0068

Hit Count: updated at: Fri, 03 Jul 2020 17:32:52 GMT